226  
SXUS52 KTAE 160016  
OSOTAE  
OSOTAE  
NORTH FLORIDA/SOUTH ALABAMA/SOUTHWEST GEORGIA WEATHER ROUNDUP  
NATIONAL WEATHER SERVICE TALLAHASSEE FLORIDA  
800 PM EDT MON JUL 15 2019  
 
NOTE: "FAIR" INDICATES FEW OR NO CLOUDS BELOW 12,000 FEET WITH NO  
SIGNIFICANT WEATHER AND/OR OBSTRUCTIONS TO VISIBILITY.  
 
!FLZ017-115-028-034-025-160100   
..NORTH FLORIDA
 
 
 
CITY SKY/WX TMP DP RH WIND PRES REMARKS  
TALL INTL ARPT MOCLDY 84 73 69 S3 30.09R HX 90  
FSU LOVE BLDG N/A 86 72 62 W3 N/A HX 92  
APALACHICOLA FAIR 86 77 74 S3 30.08S HX 97  
PERRY FAIR 82 71 69 CALM 30.10S  
CROSS CITY FAIR 79 75 89 CALM 30.09R  
JACKSONVILLE FAIR 89 70 53 SW10 30.07R HX 94  

 
 
!FLZ112-006-005-002-011-160100   
..FLORIDA PANHANDLE
 
 
 
CITY SKY/WX TMP DP RH WIND PRES REMARKS  
MARIANNA FAIR 77 75 93 CALM 30.08R  
BONIFAY NOT AVBL  
PANAMA CITY NW FAIR 86 75 69 SW7 30.08R HX 95  
TYNDALL AFB FAIR 85 79 82 SW7 30.08R HX 97  
TYND DRONE APT FAIR 85 79 82 S3 30.09R HX 98  
DE FUNIAK SPR FAIR 84 74 70 S3 30.09S HX 91  
EGLIN AFB FAIR 86 75 70 S7 30.07S HX 95  
DESTIN FAIR 87 75 67 VRB3 30.07S HX 96  
HURLBURT PTCLDY 85 77 76 CALM 30.06F HX 96  
CRESTVIEW FAIR 87 72 60 SW9 30.09R HX 93  
PENSACOLA FAIR 85 78 80 S10 30.06S HX 96  

 
 
!ALZ063-066-160100   
..SOUTH ALABAMA
 
 
 
CITY SKY/WX TMP DP RH WIND PRES REMARKS  
DOTHAN FAIR 80 73 79 E6 30.13R  
OZARK CAIRNS FAIR 84 73 67 E3 30.08R HX 90  
FT RUCKER HELI FAIR 83 74 73 CALM 30.08R HX 90  
RUCKER HELI 3 FAIR 84 74 70 MISG 30.08R HX 91  
RUCKER HELI 2 FAIR 82 74 78 SE3 30.07S  
FLORALA APT FAIR 88 69 53 S9 30.09R HX 92  
ANDALUSIA FAIR 90 69 50 S3 30.07R HX 94  
TROY FAIR 83 75 77 E3 30.08S HX 90  
EUFALA NOT AVBL  
MOBILE PTSUNNY 84 77 79 S10 30.06S HX 94  

 
 
!GAZ120>161-160100   
..SOUTHWEST AND SOUTH CENTRAL GEORGIA
 
 
 
CITY SKY/WX TMP DP RH WIND PRES REMARKS  
THOMASVILLE FAIR 86 73 66 N3 30.10R HX 93  
BAINBRIDGE N/A 86 68 54 MISG 30.11R  
MOODY AFB CLEAR 85 76 74 W3 30.08R HX 94  
VALDOSTA FAIR 84 75 74 CALM 30.08R HX 92  
MOULTRIE FAIR 82 68 61 CALM 30.10S  
BLAKELY FAIR 75 68 78 CALM 30.10S  
ALBANY FAIR 91 73 55 SW3 30.09R HX 99  
TIFTON FAIR N/A N/A N/A SW6 30.09  
FITZGERALD FAIR 89 73 58 CALM 30.11R HX 96  
CORDELE FAIR 91 68 46 W3 30.09R HX 95  
AMERICUS FAIR 93 64 38 CALM 30.10R HX 95  
HOMERVILLE FAIR 88 70 55 CALM 30.09R HX 92  

 
 
!GMZ750-755-770-775-160100   
..COASTAL AND BUOY OBS
 
 
 
STATION/POSITION TIME TEMP WIND PRES VSBY WAVE  
AIR SEA DIR/SP/G HT/PER  
(UTC) (F) (DEG/KT/KT) (MB) (MI) (FT/S)  
KEATON BEACH 0000 87 270/ 5/ 6 1019.1R  
CEDAR KEY 0000 87 330/ 3/ 4 1019.0R  
C TOWER 0000 84 160/ 1/ 2 1019.4R  
APALACHICOLA BUO 0000 85 70/ 4/ 6 1019.4  
PANAMA CITY BUOY 2350 85 86 110/ 2/ 4 1018.5R 2/ 6  
MOBILE BUOY 0000 84 84 140/ 10/ 12 1017.8  
ORANGE BCH AL BU 0000 84 85 160/ 10/ 12 1018.4  

 
 
 
CLICK HERE TO GO TO PREVIOUS BULLETINS.

The Nexlab FL Page
The Nexlab GA Page
The Nexlab AL Page Main Text Page